| time (UTC) | temp F | wind direction | speed knots | gust knots | rain 1hr in | rain 24hr in | rain mn in | humidity % | barometer mb |
| 20260507040032 | 50 | 153 | 3.5 | 6.1 | 0.00 | 0.38 | 0.00 | 81 | 1011.8 |
| 20260507034515 | 50 | 202 | 5.2 | 7.8 | 0.00 | 0.38 | 0.38 | 81 | 1011.3 |
| 20260507033033 | 50 | 210 | 3.5 | 7.0 | 0.00 | 0.38 | 0.38 | 80 | 1012.2 |
| 20260507031525 | 50 | 166 | 5.2 | 8.7 | 0.00 | 0.38 | 0.38 | 80 | 1011.9 |
| 20260507030021 | 50 | 198 | 7.8 | 10.4 | 0.00 | 0.38 | 0.38 | 80 | 1011.7 |
| 20260507024525 | 50 | 199 | 7.0 | 10.4 | 0.00 | 0.38 | 0.38 | 80 | 1011.7 |
| 20260507023026 | 51 | 163 | 7.0 | 11.3 | 0.00 | 0.38 | 0.38 | 81 | 1011.6 |
| 20260507021527 | 51 | 178 | 4.3 | 13.9 | 0.00 | 0.38 | 0.38 | 81 | 1011.9 |
| 20260507020020 | 51 | 144 | 3.5 | 12.2 | 0.00 | 0.38 | 0.38 | 83 | 1012.1 |
| 20260507014539 | 51 | 138 | 5.2 | 11.3 | 0.00 | 0.38 | 0.38 | 83 | 1012.0 |
| 20260507013027 | 52 | 148 | 5.2 | 11.3 | 0.00 | 0.38 | 0.38 | 85 | 1012.2 |
| 20260507011528 | 52 | 164 | 5.2 | 13.0 | 0.00 | 0.38 | 0.38 | 85 | 1011.9 |
| 20260507010028 | 53 | 145 | 7.0 | 8.7 | 0.00 | 0.38 | 0.38 | 84 | 1012.0 |
| 20260507004536 | 53 | 167 | 3.5 | 9.6 | 0.00 | 0.38 | 0.38 | 84 | 1011.5 |
| 20260507003033 | 53 | 195 | 4.3 | 13.9 | 0.00 | 0.38 | 0.38 | 84 | 1011.0 |
| 20260507001527 | 53 | 160 | 7.0 | 16.5 | 0.00 | 0.38 | 0.38 | 85 | 1010.7 |
| 20260507000017 | 54 | 214 | 8.7 | 13.9 | 0.00 | 0.38 | 0.38 | 85 | 1010.3 |
| 20260506234532 | 54 | 214 | 4.3 | 12.2 | 0.00 | 0.38 | 0.38 | 85 | 1010.0 |
| 20260506233033 | 55 | 220 | 5.2 | 10.4 | 0.00 | 0.38 | 0.38 | 86 | 1009.9 |
| 20260506231545 | 57 | 192 | 6.1 | 12.2 | 0.00 | 0.38 | 0.38 | 85 | 1009.8 |
| 20260506230027 | 60 | 117 | 6.1 | 10.4 | 0.00 | 0.38 | 0.38 | 85 | 1009.4 |
| 20260506224516 | 61 | 108 | 5.2 | 8.7 | 0.00 | 0.38 | 0.38 | 86 | 1009.3 |
| 20260506223040 | 61 | 67 | 4.3 | 6.1 | 0.00 | 0.38 | 0.38 | 87 | 1009.2 |
| 20260506221528 | 62 | 72 | 3.5 | 6.1 | 0.00 | 0.38 | 0.38 | 88 | 1008.9 |
| 20260506220006 | 62 | 94 | 2.6 | 7.8 | 0.00 | 0.38 | 0.38 | 89 | 1008.6 |
| 20260506214511 | 62 | 52 | 2.6 | 4.3 | 0.00 | 0.38 | 0.38 | 90 | 1008.6 |
| 20260506213008 | 61 | 94 | 1.7 | 3.5 | 0.00 | 0.38 | 0.38 | 90 | 1008.3 |
| 20260506211514 | 61 | 108 | 4.3 | 9.6 | 0.00 | 0.38 | 0.38 | 89 | 1008.2 |
| 20260506210007 | 62 | 93 | 4.3 | 7.8 | 0.00 | 0.38 | 0.38 | 88 | 1008.0 |
| 20260506204508 | 62 | 58 | 3.5 | 7.8 | 0.00 | 0.38 | 0.38 | 88 | 1008.0 |
| 20260506203021 | 62 | 61 | 3.5 | 7.8 | 0.00 | 0.38 | 0.38 | 88 | 1007.9 |
| 20260506201529 | 62 | 63 | 3.5 | 5.2 | 0.00 | 0.38 | 0.38 | 89 | 1007.9 |
| 20260506200014 | 61 | 60 | 3.5 | 5.2 | 0.00 | 0.38 | 0.38 | 90 | 1008.0 |
| 20260506194506 | 61 | 52 | 5.2 | 6.1 | 0.00 | 0.38 | 0.38 | 90 | 1008.1 |
| 20260506193011 | 60 | 79 | 3.5 | 7.0 | 0.00 | 0.38 | 0.38 | 90 | 1008.1 |
| 20260506191515 | 60 | 72 | 2.6 | 6.1 | 0.00 | 0.38 | 0.38 | 90 | 1008.1 |
| 20260506190017 | 60 | 75 | 2.6 | 7.0 | 0.00 | 0.38 | 0.38 | 91 | 1008.3 |
| 20260506184517 | 60 | 48 | 3.5 | 7.8 | 0.01 | 0.38 | 0.38 | 91 | 1008.3 |
| 20260506183028 | 59 | 94 | 2.6 | 5.2 | 0.01 | 0.38 | 0.38 | 92 | 1008.2 |
| 20260506181514 | 59 | 81 | 2.6 | 5.2 | 0.02 | 0.38 | 0.38 | 92 | 1008.3 |
| 20260506180018 | 58 | 85 | 0.0 | 3.5 | 0.03 | 0.38 | 0.38 | 92 | 1008.6 |
| 20260506174519 | 58 | 98 | 0.9 | 3.5 | 0.04 | 0.37 | 0.37 | 92 | 1008.6 |
| 20260506173018 | 58 | 75 | 1.7 | 5.2 | 0.04 | 0.37 | 0.37 | 92 | 1008.6 |
| 20260506171511 | 58 | 89 | 2.6 | 7.8 | 0.03 | 0.36 | 0.36 | 91 | 1008.6 |
| 20260506170019 | 58 | 53 | 6.1 | 8.7 | 0.03 | 0.35 | 0.35 | 90 | 1008.7 |
| 20260506164522 | 59 | 58 | 6.1 | 12.2 | 0.01 | 0.33 | 0.33 | 89 | 1008.7 |
| 20260506163019 | 59 | 58 | 7.0 | 12.2 | 0.01 | 0.33 | 0.33 | 89 | 1008.7 |
| 20260506161522 | 59 | 52 | 5.2 | 17.4 | 0.02 | 0.33 | 0.33 | 89 | 1008.7 |
| 20260506160021 | 59 | 57 | 6.1 | 8.7 | 0.03 | 0.32 | 0.32 | 89 | 1008.7 |
| 20260506154522 | 59 | 51 | 7.0 | 9.6 | 0.06 | 0.32 | 0.32 | 89 | 1008.6 |
| 20260506153024 | 58 | 39 | 3.5 | 10.4 | 0.09 | 0.32 | 0.32 | 89 | 1008.4 |
| 20260506151522 | 58 | 349 | 5.2 | 13.0 | 0.09 | 0.31 | 0.31 | 89 | 1008.6 |
| 20260506150024 | 58 | 56 | 6.1 | 13.0 | 0.09 | 0.29 | 0.29 | 89 | 1008.8 |
| 20260506144521 | 59 | 37 | 7.0 | 13.0 | 0.08 | 0.26 | 0.26 | 88 | 1009.2 |
| 20260506143028 | 59 | 12 | 8.7 | 11.3 | 0.07 | 0.23 | 0.23 | 88 | 1009.0 |
| 20260506141520 | 59 | 30 | 8.7 | 15.6 | 0.06 | 0.22 | 0.22 | 87 | 1008.8 |
| 20260506140022 | 59 | 41 | 7.0 | 11.3 | 0.05 | 0.20 | 0.20 | 87 | 1008.9 |
| 20260506134522 | 58 | 119 | 0.9 | 2.6 | 0.06 | 0.18 | 0.18 | 87 | 1009.1 |
| 20260506133024 | 58 | 109 | 0.9 | 4.3 | 0.08 | 0.16 | 0.16 | 86 | 1009.3 |
| 20260506131516 | 59 | 120 | 2.6 | 7.0 | 0.11 | 0.16 | 0.16 | 85 | 1009.3 |
| 20260506130010 | 59 | 84 | 4.3 | 8.7 | 0.12 | 0.15 | 0.15 | 85 | 1009.3 |
| 20260506124506 | 59 | 61 | 5.2 | 7.8 | 0.10 | 0.12 | 0.12 | 84 | 1009.6 |
| 20260506123029 | 59 | 79 | 3.5 | 6.1 | 0.07 | 0.08 | 0.08 | 83 | 1009.8 |
| 20260506121525 | 60 | 70 | 2.6 | 5.2 | 0.05 | 0.05 | 0.05 | 81 | 1009.8 |
| 20260506120030 | 60 | 94 | 2.6 | 13.9 | 0.03 | 0.03 | 0.03 | 78 | 1009.7 |
| 20260506114524 | 61 | 58 | 7.0 | 12.2 | 0.02 | 0.02 | 0.02 | 77 | 1009.2 |
| 20260506113030 | 61 | 67 | 3.5 | 12.2 | 0.01 | 0.01 | 0.01 | 75 | 1009.1 |
| 20260506111527 | 62 | 39 | 5.2 | 13.0 | 0.00 | 0.00 | 0.00 | 72 | 1009.0 |
| 20260506110016 | 63 | 36 | 7.8 | 17.4 | 0.00 | 0.00 | 0.00 | 69 | 1009.0 |
| 20260506104526 | 64 | 5 | 7.0 | 16.5 | 0.00 | 0.00 | 0.00 | 66 | 1008.5 |
| 20260506103026 | 64 | 329 | 9.6 | 13.0 | 0.00 | 0.00 | 0.00 | 64 | 1008.2 |
| 20260506101526 | 64 | 39 | 7.8 | 13.9 | 0.00 | 0.00 | 0.00 | 64 | 1008.2 |
| 20260506100011 | 64 | 351 | 6.1 | 11.3 | 0.00 | 0.00 | 0.00 | 63 | 1008.2 |
| 20260506094520 | 64 | 13 | 5.2 | 11.3 | 0.00 | 0.00 | 0.00 | 63 | 1008.3 |
| 20260506093024 | 65 | 28 | 7.8 | 13.0 | 0.00 | 0.00 | 0.00 | 61 | 1008.3 |
| 20260506091513 | 65 | 348 | 10.4 | 16.5 | 0.00 | 0.00 | 0.00 | 60 | 1008.5 |
| 20260506090041 | 66 | 39 | 9.6 | 15.6 | 0.00 | 0.00 | 0.00 | 59 | 1008.4 |
| 20260506084517 | 66 | 360 | 10.4 | 15.6 | 0.00 | 0.00 | 0.00 | 58 | 1008.4 |
| 20260506083018 | 65 | 358 | 7.8 | 13.0 | 0.00 | 0.00 | 0.00 | 57 | 1008.5 |
| 20260506081521 | 65 | 37 | 7.0 | 13.9 | 0.00 | 0.00 | 0.00 | 57 | 1008.5 |
| 20260506073028 | 66 | 50 | 6.1 | 8.7 | 0.00 | 0.00 | 0.00 | 55 | 1008.6 |
| 20260506071522 | 66 | 81 | 3.5 | 6.1 | 0.00 | 0.00 | 0.00 | 53 | 1008.9 |
| 20260506061540 | 67 | 25 | 7.8 | 12.2 | 0.00 | 0.00 | 0.00 | 48 | 1009.6 |
| 20260506044529 | 67 | 32 | 4.3 | 11.3 | 0.00 | 0.00 | 0.00 | 46 | 1010.3 |
| 20260506043036 | 67 | 355 | 6.1 | 9.6 | 0.00 | 0.00 | 0.00 | 45 | 1010.1 |
| 20260506041530 | 65 | 20 | 3.5 | 5.2 | 0.00 | 0.00 | 0.00 | 47 | 1010.1 |